• In Hungary
  • List of Countries
  • For 7 days
  • Water Temperature
  • Satellite Maps
  • Weather Map
  • News
  • Weather Widgets
  • user-avatar
    Login

    Hourly Weather Ganja

    Today, 20 September, Wednesday

    Time Temperature Precipitation Wind Pressure Humidity
    00:00 +24°C° 0 mm 2 mps 727 mmHg 45%
    01:00 +23°C° 0 mm 1 mps 727 mmHg 47%
    02:00 +23°C° 0 mm 1 mps 727 mmHg 50%
    03:00 +20°C° 0 mm 0 mps 727 mmHg 51%
    04:00 +22°C° 0 mm 1 mps 727 mmHg 51%
    05:00 +22°C° 0 mm 1 mps 727 mmHg 52%
    06:00 +22°C° 0 mm 1 mps 727 mmHg 52%
    07:00 +24°C° 0 mm 1 mps 727 mmHg 49%
    08:00 +26°C° 0 mm 1 mps 727 mmHg 46%
    09:00 +28°C° 0 mm 2 mps 727 mmHg 41%
    10:00 +29°C° 0 mm 2 mps 727 mmHg 38%
    11:00 +30°C° 0 mm 2 mps 727 mmHg 35%
    12:00 +31°C° 0 mm 2 mps 727 mmHg 32%
    13:00 +32°C° 0 mm 2 mps 726 mmHg 31%
    14:00 +32°C° 0 mm 2 mps 726 mmHg 30%
    15:00 +32°C° 0 mm 2 mps 726 mmHg 31%
    16:00 +31°C° 0 mm 2 mps 726 mmHg 34%
    17:00 +30°C° 0 mm 2 mps 726 mmHg 37%
    18:00 +28°C° 0 mm 1 mps 726 mmHg 41%
    19:00 +27°C° 0 mm 1 mps 726 mmHg 42%
    20:00 +27°C° 0 mm 1 mps 726 mmHg 44%
    21:00 +26°C° 0 mm 1 mps 726 mmHg 46%
    22:00 +25°C° 0 mm 1 mps 726 mmHg 46%
    23:00 +25°C° 0 mm 1 mps 726 mmHg 47%

    Tomorrow, 21 September, Thursday

    Time Temperature Precipitation Wind Pressure Humidity
    00:00 +24°C° 0 mm 1 mps 726 mmHg 48%
    01:00 +24°C° 0 mm 1 mps 726 mmHg 48%
    02:00 +23°C° 0 mm 1 mps 726 mmHg 48%
    03:00 +23°C° 0 mm 1 mps 726 mmHg 48%
    04:00 +23°C° 0 mm 1 mps 726 mmHg 47%
    05:00 +23°C° 0 mm 1 mps 726 mmHg 46%
    06:00 +23°C° 0 mm 1 mps 726 mmHg 45%
    07:00 +25°C° 0 mm 1 mps 726 mmHg 41%
    08:00 +27°C° 0 mm 1 mps 726 mmHg 36%
    09:00 +29°C° 0 mm 1 mps 726 mmHg 32%
    10:00 +30°C° 0 mm 2 mps 726 mmHg 30%
    11:00 +31°C° 0 mm 2 mps 725 mmHg 28%
    12:00 +32°C° 0 mm 2 mps 725 mmHg 27%
    13:00 +34°C° 0 mm 3 mps 725 mmHg 26%
    14:00 +34°C° 0 mm 3 mps 725 mmHg 25%
    15:00 +35°C° 0 mm 3 mps 724 mmHg 25%
    16:00 +33°C° 0 mm 3 mps 724 mmHg 28%
    17:00 +31°C° 0 mm 3 mps 724 mmHg 32%
    18:00 +29°C° 0 mm 3 mps 724 mmHg 36%
    19:00 +28°C° 0 mm 3 mps 725 mmHg 38%
    20:00 +28°C° 0 mm 3 mps 725 mmHg 40%
    21:00 +27°C° 0 mm 3 mps 725 mmHg 43%
    22:00 +26°C° 0 mm 3 mps 725 mmHg 44%
    23:00 +25°C° 0 mm 3 mps 725 mmHg 46%

    Day after tomorrow, 22 September, Friday

    Time Temperature Precipitation Wind Pressure Humidity
    00:00 +25°C° 0 mm 2 mps 725 mmHg 48%
    01:00 +24°C° 0 mm 2 mps 725 mmHg 50%
    02:00 +23°C° 0 mm 1 mps 725 mmHg 52%
    03:00 +23°C° 0 mm 1 mps 725 mmHg 54%
    04:00 +22°C° 0 mm 1 mps 725 mmHg 55%
    05:00 +22°C° 0 mm 1 mps 725 mmHg 55%
    06:00 +22°C° 0 mm 1 mps 725 mmHg 55%
    07:00 +24°C° 0 mm 1 mps 725 mmHg 49%
    08:00 +26°C° 0 mm 1 mps 725 mmHg 43%
    09:00 +28°C° 0 mm 1 mps 725 mmHg 37%
    10:00 +29°C° 0 mm 2 mps 725 mmHg 34%
    11:00 +30°C° 0 mm 2 mps 724 mmHg 30%
    12:00 +31°C° 0 mm 3 mps 724 mmHg 27%
    13:00 +33°C° 0 mm 3 mps 723 mmHg 26%
    14:00 +33°C° 0 mm 3 mps 723 mmHg 25%
    15:00 +33°C° 0 mm 3 mps 723 mmHg 25%
    16:00 +31°C° 0 mm 3 mps 723 mmHg 28%
    17:00 +29°C° 0 mm 2 mps 723 mmHg 31%
    18:00 +28°C° 0 mm 2 mps 723 mmHg 34%
    19:00 +27°C° 0 mm 2 mps 723 mmHg 36%
    20:00 +26°C° 0 mm 2 mps 724 mmHg 38%
    21:00 +25°C° 0 mm 2 mps 724 mmHg 41%
    22:00 +25°C° 0 mm 2 mps 724 mmHg 42%
    23:00 +25°C° 0 mm 1 mps 724 mmHg 44%

    23 September, Saturday

    Time Temperature Precipitation Wind Pressure Humidity
    00:00 +24°C° 0 mm 1 mps 725 mmHg 46%
    01:00 +23°C° 0.1 mm 1 mps 725 mmHg 49%
    02:00 +23°C° 0.1 mm 1 mps 725 mmHg 52%
    03:00 +20°C° 0.1 mm 0 mps 725 mmHg 55%
    04:00 +20°C° 0 mm 0 mps 725 mmHg 56%
    05:00 +20°C° 0 mm 0 mps 725 mmHg 57%
    06:00 +21°C° 0 mm 1 mps 726 mmHg 58%
    07:00 +23°C° 0 mm 1 mps 726 mmHg 52%
    08:00 +25°C° 0 mm 1 mps 726 mmHg 46%
    09:00 +27°C° 0 mm 1 mps 726 mmHg 40%
    10:00 +28°C° 0 mm 2 mps 726 mmHg 37%
    11:00 +29°C° 0 mm 3 mps 726 mmHg 33%
    12:00 +32°C° 0 mm 4 mps 726 mmHg 29%
    13:00 +32°C° 0.1 mm 4 mps 725 mmHg 28%
    14:00 +32°C° 0.1 mm 4 mps 725 mmHg 28%
    15:00 +33°C° 0.1 mm 4 mps 725 mmHg 27%
    16:00 +30°C° 0.1 mm 4 mps 725 mmHg 31%
    17:00 +29°C° 0.1 mm 3 mps 725 mmHg 35%
    18:00 +27°C° 0.1 mm 2 mps 726 mmHg 39%
    19:00 +27°C° 0 mm 3 mps 726 mmHg 41%
    20:00 +26°C° 0 mm 3 mps 727 mmHg 43%
    21:00 +25°C° 0 mm 3 mps 727 mmHg 45%
    22:00 +24°C° 0 mm 3 mps 727 mmHg 46%
    23:00 +24°C° 0 mm 2 mps 727 mmHg 47%

    24 September, Sunday

    Time Temperature Precipitation Wind Pressure Humidity
    00:00 +23°C° 0 mm 2 mps 727 mmHg 49%
    01:00 +21°C° 0 mm 2 mps 727 mmHg 49%
    02:00 +22°C° 0 mm 1 mps 727 mmHg 50%
    03:00 +21°C° 0 mm 1 mps 727 mmHg 51%
    04:00 +21°C° 0 mm 1 mps 728 mmHg 51%
    05:00 +21°C° 0 mm 1 mps 728 mmHg 50%
    06:00 +20°C° 0 mm 2 mps 728 mmHg 50%
    07:00 +21°C° 0 mm 2 mps 728 mmHg 45%
    08:00 +24°C° 0 mm 2 mps 728 mmHg 39%
    09:00 +26°C° 0 mm 2 mps 728 mmHg 33%
    10:00 +27°C° 0 mm 2 mps 728 mmHg 32%
    11:00 +28°C° 0 mm 2 mps 728 mmHg 30%
    12:00 +29°C° 0 mm 2 mps 728 mmHg 28%
    13:00 +30°C° 0 mm 3 mps 727 mmHg 28%
    14:00 +30°C° 0 mm 3 mps 727 mmHg 28%
    15:00 +31°C° 0 mm 3 mps 727 mmHg 28%
    16:00 +29°C° 0.1 mm 3 mps 727 mmHg 32%
    17:00 +28°C° 0.1 mm 3 mps 727 mmHg 36%
    18:00 +26°C° 0.1 mm 2 mps 727 mmHg 40%
    19:00 +26°C° 0 mm 3 mps 728 mmHg 42%
    20:00 +25°C° 0 mm 3 mps 728 mmHg 45%
    21:00 +24°C° 0 mm 3 mps 729 mmHg 47%
    22:00 +24°C° 0 mm 3 mps 728 mmHg 51%
    23:00 +22°C° 0 mm 3 mps 728 mmHg 54%

    25 September, Monday

    Time Temperature Precipitation Wind Pressure Humidity
    00:00 +21°C° 0 mm 2 mps 728 mmHg 57%
    01:00 +21°C° 0 mm 2 mps 728 mmHg 60%
    02:00 +21°C° 0 mm 1 mps 728 mmHg 63%
    03:00 +20°C° 0 mm 1 mps 728 mmHg 66%
    04:00 +20°C° 0 mm 1 mps 728 mmHg 67%
    05:00 +20°C° 0 mm 1 mps 728 mmHg 68%
    06:00 +17°C° 0 mm 0 mps 728 mmHg 70%
    07:00 +21°C° 0 mm 1 mps 728 mmHg 64%
    08:00 +23°C° 0 mm 1 mps 729 mmHg 58%
    09:00 +25°C° 0 mm 1 mps 729 mmHg 52%
    10:00 +26°C° 0 mm 2 mps 728 mmHg 48%
    11:00 +27°C° 0 mm 2 mps 728 mmHg 44%
    12:00 +28°C° 0 mm 3 mps 728 mmHg 40%
    13:00 +29°C° 0 mm 3 mps 727 mmHg 39%
    14:00 +29°C° 0 mm 3 mps 727 mmHg 38%
    15:00 +30°C° 0 mm 3 mps 727 mmHg 37%
    16:00 +28°C° 0 mm 3 mps 727 mmHg 41%
    17:00 +27°C° 0 mm 3 mps 727 mmHg 46%
    18:00 +26°C° 0 mm 2 mps 727 mmHg 50%
    19:00 +25°C° 0 mm 3 mps 728 mmHg 52%
    20:00 +25°C° 0 mm 3 mps 728 mmHg 54%
    21:00 +24°C° 0 mm 3 mps 729 mmHg 56%
    22:00 +22°C° 0 mm 3 mps 729 mmHg 60%
    23:00 +22°C° 0 mm 3 mps 729 mmHg 63%
    Show more